Weather Roundup
Issued by NWS Chicago, IL

Home | Current Version | Previous Version | Text Only | Print | Product List | Glossary Off
Versions: 1 2 3 4 5 6 7 8 9 10 11 12 13 14 15 16 17 18 19 20 21 22 23 24 25 26 27 28 29 30 31 32 33 34 35 36 37 38 39 40 41 42 43 44 45 46 47 48 49 50

000
NZUS59 KLOT 172358
HRRLOT

CHICAGO AREA WEATHER ROUNDUP
NATIONAL WEATHER SERVICE CHICAGO/ROMEOVILLE IL
700 PM CDT WED SEP 17 2014

NOTE: "FAIR" INDICATES FEW OR NO CLOUDS BELOW 12,000 FEET WITH NO
SIGNIFICANT WEATHER AND/OR OBSTRUCTIONS TO VISIBILITY.

* THESE STATIONS ARE NOT UNDER NWS QUALITY CONTROL. THEY ALSO MAY NOT
  REPORT WEATHER SUCH AS PRECIPITATION OR FOG.

ILZ005-006-012>014-019>023-180100-
NORTHEAST ILLINOIS

CITY           SKY/WX    TMP DP  RH WIND       PRES   REMARKS
OHARE          CLEAR     66  46  48 E8        29.98R
6HR MIN TEMP:  66; 6HR MAX TEMP:  70;

MIDWAY         CLEAR     65  48  54 E10       29.98R
6HR MIN TEMP:  65; 6HR MAX TEMP:  72;

AURORA         CLEAR     65  49  56 CALM      29.98R
6HR MIN TEMP:  65; 6HR MAX TEMP:  72;

WAUKEGAN       CLEAR     59  48  67 SE3       29.98R
6HR MIN TEMP:  59; 6HR MAX TEMP:  68;

DUPAGE AIRPORT CLEAR     65  49  56 CALM      29.97S
6HR MIN TEMP:  65; 6HR MAX TEMP:  73;

WHEELING       CLEAR     63  47  55 E3        30.00R
6HR MIN TEMP:  63; 6HR MAX TEMP:  71;

NORTHERLY IS     N/A     62  50  64 E8          N/A
$$

WIZ051-052-058>065-066-070>072-180100-
SOUTHEAST WISCONSIN

CITY           SKY/WX    TMP DP  RH WIND       PRES   REMARKS
MILWAUKEE      PTCLDY    60  48  64 S8        29.98S
6HR MIN TEMP:  60; 6HR MAX TEMP:  69;

WAUKESHA       PTCLDY    63  46  55 CALM      29.99R
$$

INZ001>003-010>013-019-020-180100-
NORTHWEST INDIANA

CITY           SKY/WX    TMP DP  RH WIND       PRES   REMARKS
GARY*          CLEAR     63  48  59 E7        29.99R
MICHIGAN CITY* NOT AVBL
RENSSELAER*    NOT AVBL
$$

LMZ740>746-180100-
SOUTHERN LAKE MICHIGAN

STATION/POSITION TIME  SKY/WX   TEMP WIND        PRES    VSBY
                                AIR  DIR/SP/G
                 (UTC)          (F)  (DEG/KT/KT) (MB)    (MI)
HARRISON CRIB    2300            62   80/ 12/ 12   N/A
BURNHAM HARBOR   2300            62   80/  5/  9   N/A
CALUMET HARBOR   2300            63   60/  7/  9 1014.1R
BURNS HARBOR     NOT AVBL
MICHIGAN CITY    2300            62   30/ 11/ 12   N/A
$$

ABBREVIATIONS USED IN REMARKS
   TC - TEMPERATURE IN CELSIUS
  WCI - WIND CHILL INDEX
   HX - HEAT INDEX
  VSB - VISIBILITY
$$



USA.gov is the U.S. government's official web portal to all federal, state and local government web resources and services.